Ruidoso, NM

9:19 PM MDT on October 20, 2017 (GMT -0600)
Sierra Blanca Regional

Weather History for KSRR - July, 2014

Change the Weather History Date:

Friday, July 18, 2014

  Actual Average Record
Temperature  
Mean Temperature 70 °F -  
Max Temperature 84 °F 80 °F 89 °F (2004)
Min Temperature 57 °F 57 °F 55 °F (1998)
Cooling Degree Days 6    
Growing Degree Days 20 (Base 50)    
Moisture  
Dew Point 54 °F    
Average Humidity 66    
Maximum Humidity 100    
Minimum Humidity 20    
Precipitation  
Precipitation 0.00 in - - ()
Sea Level Pressure  
Sea Level Pressure 30.25 in    
Wind  
Wind Speed - (North)    
Max Wind Speed -    
Max Gust Speed -    
Visibility 8 miles    
Events      
Averages and records for this station are not official NWS values.
T = Trace of Precipitation, MM = Missing Value Source: NWS Daily Summary

Daily Weather History Graph

Daily Weather History Graph

Search for Another Location

Airport or City:

Trip Planner

Search our weather history database for the weather conditions in past years. The results will help you decide how hot, cold, wet, or windy it might be!

Date:

Astronomy

Jul. 18, 2014 Rise Set
Actual Time 6:05 AM MDT 8:11 PM MDT
Civil Twilight 5:37 AM MDT 8:39 PM MDT
Nautical Twilight 5:02 AM MDT 9:13 PM MDT
Astronomical Twilight 4:26 AM MDT 9:50 PM MDT
Moon No Moon Rise 1:01 PM MDT (7/18)
Length of Visible Light 15h 02m
Length of Day
14h 06m
Waning Gibbous, 54% of the Moon is Illuminated
Jul 18
Waning Gibbous
Jul 18
Last Quarter
Jul 26
New
Aug 3
First Quarter
Aug 10
Full

Hourly Weather History & Observations

Time (MDT) Temp. Heat Index Dew Point Humidity Pressure Visibility Wind Dir Wind Speed Gust Speed Precip Events Conditions
12:15 AM 60.8 °F - 59.0 °F 94% 30.29 in 6.0 mi North - - N/A   Overcast
12:35 AM 59.0 °F - 59.0 °F 100% 30.29 in 3.0 mi North - - N/A   Overcast
12:55 AM 59.0 °F - 59.0 °F 100% 30.29 in 2.5 mi North - - N/A   Overcast
1:15 AM 59.0 °F - 59.0 °F 100% 30.29 in 5.0 mi North - - N/A   Overcast
1:35 AM 59.0 °F - 59.0 °F 100% 30.28 in 5.0 mi North - - N/A   Overcast
1:55 AM 59.0 °F - 59.0 °F 100% 30.27 in 9.0 mi North - - N/A   Overcast
2:15 AM 59.0 °F - 59.0 °F 100% 30.27 in 6.0 mi North - - N/A   Overcast
2:35 AM 59.0 °F - 59.0 °F 100% 30.27 in 4.0 mi North - - N/A   Overcast
2:55 AM 59.0 °F - 59.0 °F 100% 30.26 in 4.0 mi North - - N/A   Overcast
3:15 AM 59.0 °F - 59.0 °F 100% 30.25 in 5.0 mi North - - N/A   Overcast
3:35 AM 59.0 °F - 59.0 °F 100% 30.25 in 4.0 mi North - - N/A   Overcast
3:55 AM 59.0 °F - 59.0 °F 100% 30.26 in 4.0 mi North - - N/A   Overcast
4:15 AM 59.0 °F - 59.0 °F 100% 30.26 in 7.0 mi North - - N/A   Overcast
5:15 AM 57.2 °F - 57.2 °F 100% 30.27 in 5.0 mi North - - N/A   Mostly Cloudy
5:35 AM 57.2 °F - 57.2 °F 100% 30.27 in 5.0 mi North - - N/A   Overcast
5:55 AM 57.2 °F - 57.2 °F 100% 30.28 in 7.0 mi North - - N/A   Overcast
6:15 AM 57.2 °F - 57.2 °F 100% 30.28 in 3.0 mi North - - N/A   Overcast
6:35 AM 57.2 °F - 57.2 °F 100% 30.28 in 3.0 mi North - - N/A   Mostly Cloudy
6:55 AM 57.2 °F - 57.2 °F 100% 30.28 in 3.0 mi North - - N/A   Overcast
7:15 AM 59.0 °F - 59.0 °F 100% 30.28 in 2.0 mi North - - N/A   Overcast
7:35 AM 59.0 °F - 59.0 °F 100% 30.29 in 4.0 mi North - - N/A   Overcast
7:55 AM 59.0 °F - 57.2 °F 94% 30.29 in 5.0 mi North - - N/A   Overcast
8:15 AM 59.0 °F - 57.2 °F 94% 30.29 in 8.0 mi North - - N/A   Overcast
8:35 AM 60.8 °F - 57.2 °F 88% 30.29 in 9.0 mi North - - N/A   Mostly Cloudy
8:55 AM 62.6 °F - 55.4 °F 77% 30.28 in 10.0 mi North - - N/A   Clear
9:15 AM 64.4 °F - 55.4 °F 73% 30.28 in 10.0 mi North - - N/A   Clear
9:35 AM 66.2 °F - 57.2 °F 73% 30.28 in 10.0 mi North - - N/A   Clear
9:55 AM 66.2 °F - 57.2 °F 73% 30.28 in 10.0 mi North - - N/A   Clear
10:15 AM 66.2 °F - 57.2 °F 73% 30.28 in 10.0 mi North - - N/A   Clear
10:35 AM 68.0 °F - 57.2 °F 68% 30.28 in 10.0 mi North - - N/A   Clear
10:55 AM 71.6 °F - 55.4 °F 57% 30.27 in 10.0 mi North - - N/A   Clear
11:15 AM 73.4 °F - 55.4 °F 53% 30.26 in 10.0 mi North - - N/A   Clear
11:35 AM 75.2 °F - 55.4 °F 50% 30.26 in 10.0 mi North - - N/A   Clear
11:55 AM 75.2 °F - 55.4 °F 50% 30.25 in 10.0 mi North - - N/A   Clear
12:15 PM 77.0 °F - 53.6 °F 44% 30.25 in 10.0 mi North - - N/A   Clear
12:35 PM 77.0 °F - 53.6 °F 44% 30.25 in 10.0 mi North - - N/A   Clear
12:55 PM 80.6 °F - 46.4 °F 30% 30.25 in 10.0 mi North - - N/A   Clear
1:35 PM 80.6 °F - 44.6 °F 28% 30.23 in 10.0 mi North - - N/A   Clear
1:55 PM 82.4 °F - 44.6 °F 26% 30.23 in 10.0 mi North - - N/A   Clear
2:15 PM 82.4 °F - 42.8 °F 25% 30.23 in 10.0 mi North - - N/A   Clear
2:35 PM 84.2 °F - 42.8 °F 23% 30.23 in 8.0 mi North - - N/A   Clear
2:55 PM 82.4 °F - 42.8 °F 25% 30.23 in 10.0 mi North - - N/A   Clear
3:15 PM 82.4 °F - 39.2 °F 21% 30.22 in 10.0 mi North - - N/A   Clear
3:35 PM 84.2 °F - 41.0 °F 22% 30.22 in 10.0 mi North - - N/A   Clear
3:55 PM 82.4 °F - 37.4 °F 20% 30.22 in 10.0 mi North - - N/A   Clear
4:15 PM 82.4 °F - 41.0 °F 23% 30.21 in 10.0 mi North - - N/A   Clear
4:35 PM 84.2 °F - 42.8 °F 23% 30.21 in 10.0 mi North - - N/A   Clear
4:55 PM 80.6 °F - 46.4 °F 30% 30.20 in 10.0 mi North - - N/A   Partly Cloudy
5:15 PM 82.4 °F - 44.6 °F 26% 30.20 in 10.0 mi North - - N/A   Partly Cloudy
5:35 PM 82.4 °F - 46.4 °F 28% 30.20 in 10.0 mi North - - N/A   Clear
5:55 PM 80.6 °F 80.5 °F 55.4 °F 42% 30.19 in 10.0 mi North - - N/A   Scattered Clouds
6:15 PM 80.6 °F 80.3 °F 53.6 °F 39% 30.19 in 10.0 mi North - - N/A   Partly Cloudy
6:35 PM 80.6 °F - 50.0 °F 34% 30.20 in 10.0 mi North - - N/A   Clear
6:55 PM 78.8 °F - 53.6 °F 42% 30.20 in 10.0 mi North - - N/A   Clear
7:15 PM 77.0 °F - 53.6 °F 44% 30.21 in 10.0 mi North - - N/A   Partly Cloudy
7:35 PM 77.0 °F - 55.4 °F 47% 30.22 in 10.0 mi North - - N/A   Partly Cloudy
7:55 PM 75.2 °F - 55.4 °F 50% 30.22 in 10.0 mi North - - N/A   Clear
8:15 PM 73.4 °F - 55.4 °F 53% 30.23 in 10.0 mi North - - N/A   Clear
8:35 PM 73.4 °F - 57.2 °F 57% 30.24 in 10.0 mi North - - N/A   Clear
8:55 PM 71.6 °F - 57.2 °F 60% 30.24 in 10.0 mi North - - N/A   Clear
9:15 PM 71.6 °F - 57.2 °F 60% 30.24 in 10.0 mi North - - N/A   Clear
9:35 PM 69.8 °F - 57.2 °F 64% 30.24 in 10.0 mi North - - N/A   Clear
9:55 PM 68.0 °F - 57.2 °F 68% 30.25 in 10.0 mi North - - N/A   Clear
10:15 PM 68.0 °F - 57.2 °F 68% 30.25 in 10.0 mi North - - N/A   Clear
10:35 PM 68.0 °F - 57.2 °F 68% 30.25 in 10.0 mi North - - N/A   Clear
10:55 PM 68.0 °F - 57.2 °F 68% 30.25 in 10.0 mi North - - N/A   Clear
11:15 PM 66.2 °F - 57.2 °F 73% 30.25 in 10.0 mi North - - N/A   Clear
11:55 PM 64.4 °F - 57.2 °F 77% 30.25 in 10.0 mi North - - N/A   Clear